Back to catalog

UFO 6

USA 114

AliveCommunicationsGEO
NORAD 23696·PAYLOAD·🇺🇸 United States

Launched Oct 22, 1995 from Cape Canaveral Space Force Station

Loading…

TLE

FreshSource: Space-Track

Epoch: Sep 14, 2026, 12:34 UTC

1 23696U 95057A   26257.52388823 -.00000165  00000-0  00000-0 0  9996
2 23696  11.6272  14.2766 0006995 187.5112 167.2140  0.98767294112655

Track UFO 6 in real time with AllMySat

Download on the App Store